Location: RyutenAO
(34.8939°N, 134.0022°E)
Time: 08:48:17
(UTC+09:00)

ISS - Visible Passes

Search period start: 07 December 2022 00:00
Search period end: 17 December 2022 00:00
Orbit: 414 x 420 km, 51.6° (Epoch: 06 December)

Date Brightness Start Highest point End Pass type
(mag) Time Alt. Az. Time Alt. Az. Time Alt. Az.
07 Dec -3.3 18:11:34 10° NW 18:14:52 61° SW 18:17:42 13° SE visible
08 Dec -3.8 17:23:23 10° NW 17:26:42 67° NE 17:30:01 10° SE visible
09 Dec -0.7 18:12:43 10° W 18:14:59 17° SW 18:17:17 10° S visible
10 Dec -1.7 17:23:54 10° WNW 17:26:55 32° SW 17:29:56 10° SSE visible
16 Dec -0.6 06:03:40 10° S 06:06:05 19° SE 06:08:32 10° E visible
